Content
SEND FEEDBACK

Daily
Averages
Monthly
Summary
France

PARIS, FRANCE


Home > Europe > France
Elevation: 96 meters     Latitude: 48 44N     Longitude: 002 24E

WEATHER
 
SELECT A DAY
Number of Records: 319,203;   Date Range: 7/1/96 - 7/20/14
 
SHARE

PRINT THIS DATA

[ ← Previous Day ]
WEATHER ALMANAC - 28 FEBRUARY, 2013
[ Next Day → ]
[ °F ]   °C
Weather ElementAverageHighLow
Temperature2.2 °C3 °C (12:30 pm)1.7 °C (1:00 am)
Dewpoint0.2 °C1 °C (12:30 am)-1 °C (11:00 am)
Humidity86.6 %93 % (12:30 am)74 % (1:00 pm)
Barometer1025.4 hPa1028.4 hPa (1:00 am)1024 hPa (3:00 pm)
Wind Speed13 km/h18.5 km/h (2:00 pm)
Weather ElementAverage
Visibility8 km
Wind DirectionNNE (37.7 °)

Weather ElementTotal
Precipitation---
Heating Degree Days16 (Base 18.3)
Averaged from 52 records on 28 February, 2013
WEATHER CONDITIONS BREAKOUT
WIND DIRECTION BREAKOUT
WEATHER BY HOUR - 28 FEBRUARY, 2013
[ °F ]   °C
Local TimeTemperatureDewpointHumidityBarometerVisibilityWind DirectionWind SpeedGust SpeedPrecipitationEventsConditions
12:30 AM2 °C1 °C93 %1027.1 hPa6 kmNNE (30°)11.1 km/hOvercast
1:00 AM1.7 °C0.6 °C89 %1028.4 hPa6.4 kmNNE (30°)11.1 km/hPartly Cloudy
1:00 AM2 °C1 °C93 %1027.1 hPa6 kmNNE (30°)11.1 km/hOvercast
1:30 AM2 °C1 °C93 %1027.1 hPa4.5 kmNNE (30°)14.8 km/hMostly Cloudy
2:00 AM2 °C1 °C93 %1027.1 hPa4.5 kmNNE (30°)13 km/hMostly Cloudy
2:30 AM2 °C1 °C93 %1027.1 hPa4.5 kmNNE (30°)13 km/hMostly Cloudy
3:00 AM2 °C1 °C93 %1027.1 hPa4.5 kmNNE (30°)13 km/hOvercast
3:30 AM2 °C1 °C93 %1026.1 hPa5 kmNE (40°)14.8 km/hMostly Cloudy
4:00 AM2 °C1 °C93 %1026.1 hPa6 kmNNE (30°)14.8 km/hMostly Cloudy
4:08 AM2 °C1 °C93 %1026.1 hPa6 kmNNE (30°)13 km/hMostly Cloudy
4:30 AM2 °C1 °C93 %1026.1 hPa6 kmNE (40°)14.8 km/hOvercast
5:00 AM2 °C0 °C87 %1026.1 hPa6 kmNE (40°)14.8 km/hOvercast
5:30 AM2 °C0 °C87 %1025.1 hPa6 kmNE (40°)14.8 km/hLight Drizzle
6:00 AM2 °C0 °C87 %1025.1 hPa6 kmNNE (30°)14.8 km/hOvercast
6:30 AM2 °C0 °C87 %1025.1 hPa6 kmNE (40°)9.3 km/hOvercast
7:00 AM1.7 °C0.6 °C87 %1026.4 hPa6.4 kmNE (40°)13 km/hPartly Cloudy
7:00 AM2 °C0 °C87 %1025.1 hPa6 kmNE (40°)13 km/hOvercast
7:30 AM2 °C0 °C87 %1025.1 hPa4.5 kmNE (40°)14.8 km/hOvercast
8:00 AM2 °C0 °C87 %1025.1 hPa6 kmNE (40°)14.8 km/hOvercast
8:30 AM2 °C0 °C87 %1026.1 hPa6 kmNE (40°)14.8 km/hOvercast
9:00 AM2 °C0 °C87 %1026.1 hPa6.9 kmNE (40°)13 km/hOvercast
9:30 AM2 °C0 °C87 %1026.1 hPa6.9 kmNE (40°)13 km/hOvercast
10:00 AM2 °C0 °C87 %1026.1 hPa6.9 kmENE (60°)14.8 km/hOvercast
10:30 AM2 °C0 °C87 %1026.1 hPa6.9 kmNE (50°)13 km/hOvercast
11:00 AM2 °C-1 °C81 %1026.1 hPa6.9 kmENE (60°)14.8 km/hOvercast
11:30 AM2 °C0 °C87 %1026.1 hPa10 kmENE (70°)14.8 km/hOvercast
12:00 PM2 °C0 °C87 %1026.1 hPa10 kmNE (50°)11.1 km/hMostly Cloudy
12:30 PM3 °C0 °C81 %1026.1 hPa10 kmNE (40°)13 km/hMostly Cloudy
1:00 PM2.8 °C0 °C74 %1026.4 hPa14.5 kmNE (50°)13 km/hOvercast
1:00 PM3 °C0 °C81 %1025.1 hPa10 kmNE (50°)13 km/hMostly Cloudy
1:30 PM3 °C0 °C81 %1025.1 hPa10 kmNE (50°)14.8 km/hOvercast
2:00 PM3 °C0 °C81 %1025.1 hPa10 kmNNE (30°)18.5 km/hOvercast
2:30 PM3 °C0 °C81 %1025.1 hPa10 kmNNE (20°)14.8 km/hMostly Cloudy
3:00 PM3 °C0 °C81 %1024 hPa10 kmNNE (30°)14.8 km/hMostly Cloudy
3:30 PM3 °C0 °C81 %1024 hPa10 kmNNE (20°)9.3 km/hOvercast
4:00 PM3 °C0 °C81 %1024 hPa10 kmNNE (20°)11.1 km/hOvercast
4:30 PM3 °C0 °C81 %1024 hPa10 kmNNE (30°)13 km/hOvercast
5:00 PM3 °C0 °C81 %1024 hPa10 kmNE (40°)11.1 km/hOvercast
5:30 PM2 °C0 °C87 %1024 hPa10 kmNE (40°)11.1 km/hOvercast
6:00 PM2 °C0 °C87 %1024 hPa10 kmNE (40°)11.1 km/hOvercast
6:30 PM2 °C0 °C87 %1024 hPa10 kmNE (40°)13 km/hOvercast
7:00 PM1.7 °C0 °C84 %1025.4 hPa9.7 kmNE (40°)11.1 km/hOvercast
7:00 PM2 °C0 °C87 %1024 hPa10 kmNE (40°)11.1 km/hMostly Cloudy
7:30 PM2 °C0 °C87 %1024 hPa10 kmNE (40°)13 km/hMostly Cloudy
8:00 PM2 °C0 °C87 %1024 hPa10 kmNNE (30°)13 km/hMostly Cloudy
8:30 PM2 °C0 °C87 %1024 hPa10 kmNNE (30°)13 km/hMostly Cloudy
9:00 PM2 °C0 °C87 %1024 hPa10 kmNNE (30°)13 km/hMostly Cloudy
9:30 PM2 °C0 °C87 %1024 hPa10 kmNNE (30°)9.3 km/hMostly Cloudy
10:00 PM2 °C0 °C87 %1024 hPa10 kmNE (40°)13 km/hOvercast
10:30 PM2 °C0 °C87 %1024 hPa10 kmNE (40°)13 km/hOvercast
11:00 PM2 °C0 °C87 %1024 hPa10 kmNE (40°)13 km/hOvercast
11:30 PM2 °C0 °C87 %1024 hPa10 kmNNE (30°)13 km/hOvercast
Hourly data recorded from LFPO, located 0 kilometers away from Paris, France







STORIES FROM OUR PARTNERS